Погода в Волковыске

Беларусь     53°09′46″N   24°27′50″E
темп.,
°C
ветер,
м/с
пор.,
м/с
влажн.,
%
обл.,
%
осадки,
мм/ч
давл.,
гПа
погр.,
м
21 апреля, ср
ср2100:00+7ююз228980 0.4 101141
03:00+5з229055 0.6 101016
06:00+5зсз349211 0.0 101051
09:00+9зсз357513 0.0 1010310
12:00+13зсз56555 0.6 10091429
15:00+14зсз454597 0.8 10081914
18:00+13юз4661100 0.0 1008320
21:00+10зюз356898 0.1 100986
22 апреля, чт
чт2200:00+9юз3471100 0.0 100983
03:00+7юз478353 0.0 1009118
06:00+6ююз49905 0.2 1008159
09:00+8зюз688229 0.5 1009568
12:00+7зюз797675 0.1 1011999
15:00+9зюз81045100 0.1 10111660
18:00+9з795298 0.0 10112140
21:00+4з511671 0.0 1013457
23 апреля, пт
пт2300:00+3юз6128025 0.0 1013426
03:00+2зюз612765 0.0 1013657
06:00+1юз611865 0.0 1013498
09:00+3зюз7975100 0.0 1014883
12:00+6з685593 0.4 10141715
15:00+8з81045100 0.9 10142330
18:00+6зсз7958100 0.9 10151644
21:00+3зсз498098 1.3 1016304
24 апреля, сб
сб2400:00+2зсз5984100 0.0 1017714
03:00+1з7128594 0.2 1016717
06:00+1з61184100 0.0 1016693
09:00+2зсз71191100 0.1 1017773
12:00+6зсз7957100 0.4 10161693
15:00+7зсз81052100 1.5 10161990
18:00+6зсз795863 0.7 10161627
21:00+2зсз497183 0.9 1017247
25 апреля, вс
вс2500:00−1з511805 0.0 1017347
03:00−1з7138792 0.0 1016598
06:00+1з81383100 0.1 10151208
09:00+2зсз9137698 0.1 10151333
12:00+4зсз101266100 0.4 10161495
15:00+6сз91252100 1.1 10152131
18:00+5зсз91272100 0.3 10161231
21:00+2сз7117569 0.3 1016779